SCP
0 0 0 0 -0 -0 -0 0 0 0 0 0 0 0 0 -0 0 0 0 0 0 0 0 0 0 0 0 0 0 0 0 0 0 0 0 0 0 0 -0 0 0 0 0 0
0 0 0 0 -0 -0 -0 0 0 0 0 0 0 0 0 0 0 0 0 0 0 0 0 0 0 0 0 0 0 0 0 0 0 0 0 0 0 0 0 -0 -0 -0 0 0
0 0 0 0 0 0 0 0 0 0 0 0 0 0 0 0 0 0 0 0 0 0 0 0 0 0 0 -0 0 0 0 0 0 0 0 0 0 0 0 0 0 0 0 -0
0 0 0 0 -0 0 0 0 0 0 0 0 0 0 0 0 0 0 0 0 0 0 0 0 0 0 0 0 0 0 0 0 0 0 0 0 0 0 0 0 0 0 0 -0
0 0 0 0 0 0 0 0 0 0 0 0 0 0 0 0 0 0 0 0 0 0 0 0 0 0 0 0 0 0 0 0 0 0 0 0 0 -0 -0 0 0 0 0 0
0 0 0 0 0 0 0 0 0 0 0 0 0 0 0 0 0 0 0 0 0 0 0 0 0 0 0 0 0 0 0 0 0 0 0 0 0 0 0 0 0 0 -0 0
0 0 0 0 0 0 0 0 0 0 0 0 0 0 0 0 0 0 0 0 0 0 0 0 -0 0 0 0 0 0 0 0 0 0 0 0 0 -0 0 0 0 0 0 0
0 0 0 0 0 0 0 0 0 0 0 0 0 0 0 0 0 0 0 0 0 0 0 0 0 0 0 0 0 0 0 0 0 0 0 0 0 0 0 0 0 0 0 0
0 0 0 0 0 0 0 0 0 0 0 0 0 0 0 0 0 0 0 0 0 0 0 0 0 0 0 0 0 0 0 0 0 0 0 0 0 0 0 0 0 0 0 -0
0 0 0 0 0 0 0 0 0 0 0 0 0 0 0 0 0 0 0 0 0 0 0 0 0 0 0 0 0 0 0 0 0 0 0 0 0 0 -0 0 0 0 -0 0
0 0 0 0 0 0 0 0 0 0 0 0 0 0 0 0 0 0 -0 0 0 0 0 0 0 0 0 0 0 0 0 0 0 0 0 0 0 0 -0 0 0 0 -0 0
0 0 0 0 0 0 0 0 0 0 0 0 0 0 0 0 0 0 0 0 0 0 0 0 0 0 0 0 0 0 0 0 0 0 0 0 0 0 0 0 0 0 0 0
0 0 0 0 0 0 0 0 0 0 0 0 0 0 0 0 0 0 0 0 0 0 0 0 0 0 0 0 0 -0 0 0 0 0 0 0 0 0 0 0 0 0 0 0
0 0 0 0 0 0 0 0 0 0 0 0 0 0 0 0 0 0 0 0 0 0 0 0 0 0 0 0 0 -0 0 0 0 0 0 -0 0 0 0 0 0 0 0 0
0 0 0 0 0 0 0 0 0 0 0 0 0 -0 -0 0 0 0 0 0 0 0 0 0 0 0 0 0 0 0 0 0 0 0 0 0 0 0 0 0 -0 0 -0 -0
0 0 0 0 0 0 0 0 0 0 0 0 0 0 -0 -0 0 0 0 0 0 0 0 0 0 0 0 0 -0 0 0 0 0 0 0 0 0 0 0 0 0 -0 -0 0
0 0 0 0 0 0 0 0 0 0 0 0 0 0 -0 -0 0 0 0 0 0 0 0 0 0 0 0 0 0 0 -0 0 0 0 0 0 0 0 0 0 0 0 0 0
0 0 0 0 0 0 0 0 0 0 0 0 0 -0 -0 -0 0 0 0 0 0 0 0 0 -0 0 0 -0 0 -0 -0 0 0 0 0 0 0 0 0 0 0 -0 0 0
0 0 0 0 0 0 0 0 0 0 0 0 0 0 0 -0 -0 0 0 0 0 0 0 0 -0 -0 0 0 0 -0 -0 -0 0 0 0 0 0 0 0 0 0 0 0 0
0 0 0 0 0 0 0 0 0 0 0 0 0 0 0 0 0 0 0 0 0 0 -0 0 -0 0 -0 0 0 0 -0 -0 -0 -0 0 0 0 0 0 0 0 0 0 0
0 0 0 0 0 0 0 0 0 0 0 -0 0 0 -0 0 0 0 0 -0 -0 -0 0 -0 -0 0 0 -0 0 -0 -0 -0 -0 0 0 0 0 0 0 0 0 0 0 0
0 0 0 0 0 0 0 0 0 0 -0 0 0 0 -0 -0 0 0 0 -0 -0 0 -0 -0 -0 0 -0 0 0 -0 -0 -0 -0 0 0 0 0 0 0 0 0 0 -0 0
0 0 0 0 0 0 0 0 0 -0 -0 -0 0 -0 0 0 -0 -0 -0 -0 -0 -0 0 -0 0 0 0 -0 -0 0 -0 -0 0 0 0 0 0 0 0 0 0 0 -0 -0
0 0 0 0 0 0 0 -0 -0 0 0 -0 0 -0 -0 0 0 -0 -0 -0 0 0 -0 0 0 0 0 0 -0 0 -0 -0 -0 0 0 0 0 0 0 0 0 0 0 0
0 0 0 -0 0 0 0 0 -0 -0 -0 -0 0 0 0 -0 -0 0 0 -0 0 0 -0 0 0 0 0 -0 -0 -0 -0 -0 -0 -0 0 0 0 0 0 0 0 0 -0 -0
0 0 0 0 0 0 0 0 0 -0 0 0 0 -0 0 0 0 0 0 0 0 -0 -0 0 0 -0 -0 0 0 -0 -0 -0 -0 -0 0 0 0 0 0 0 0 0 -0 -0
0 0 0 0 0 0 -0 -0 0 0 0 0 -0 0 0 -0 -0 -0 0 0 0 0 0 0 -0 -0 -0 -0 -0 0 -0 -0 -0 -0 -0 -0 0 0 0 0 0 -0 -0 -0
Wind_Speed_500mb
48 46 44 59 78 75 60 33 7 15 21 5 11 8 16 36 39 41 22 11 12 17 18 15 22 29 20 41 1 6 5 8 5 12 19 23 12 7 11 4 6 8 3 14
50 44 44 48 75 72 70 49 22 8 16 7 9 20 23 27 26 30 23 8 18 19 13 12 11 26 33 34 10 5 12 5 8 13 9 4 5 7 8 7 7 10 10 9
50 47 48 57 58 54 60 20 8 28 21 26 17 18 18 22 35 31 25 10 8 13 17 21 13 23 25 36 24 21 13 5 10 12 20 16 4 16 17 14 7 10 16 25
49 45 47 58 72 43 35 12 11 25 10 18 32 25 19 21 30 21 34 14 21 24 18 24 21 26 27 26 16 12 11 10 13 20 29 29 30 33 33 21 30 15 30 29
41 41 52 67 61 45 30 15 14 27 40 30 25 23 15 22 32 27 16 15 18 18 14 15 19 17 12 8 12 13 11 8 12 15 21 30 36 32 33 30 34 21 17 22
40 44 54 55 47 36 17 17 31 21 16 17 18 14 25 29 34 20 47 31 16 20 24 31 33 35 29 18 12 10 8 6 9 12 19 31 18 13 20 10 8 4 8 9
44 46 45 50 37 35 26 27 17 8 9 11 18 30 33 26 34 38 46 41 16 14 21 35 44 44 40 32 21 24 10 9 3 9 12 7 11 25 13 17 16 18 11 21
48 48 45 40 31 29 22 24 9 6 7 18 28 24 25 29 46 30 39 43 7 21 17 7 10 8 4 8 18 16 17 5 3 2 5 20 15 14 21 8 5 23 27 28
49 48 42 27 23 26 27 20 20 13 10 10 16 28 14 13 17 18 22 17 12 8 3 6 8 6 11 2 6 4 12 15 8 4 6 7 14 25 39 14 9 35 29 27
47 44 32 20 19 25 28 25 18 14 11 31 21 11 13 14 22 10 21 30 12 3 4 3 5 6 13 4 7 0 3 3 10 10 10 11 24 25 32 6 12 45 50 45
33 40 29 18 19 23 28 30 19 21 13 45 34 23 27 27 31 9 26 21 14 8 4 4 5 4 7 8 10 3 8 6 5 7 7 5 29 12 13 14 30 42 45 54
26 33 28 22 20 21 26 27 21 20 35 35 53 63 54 65 62 37 12 18 10 8 5 7 7 5 6 7 5 11 6 8 5 5 8 10 28 21 18 35 44 48 60 63
25 29 28 18 21 19 30 26 27 24 26 47 28 18 20 21 19 31 14 1 10 9 12 6 5 6 3 5 6 7 6 29 7 11 7 18 50 27 57 50 61 67 68 68
23 27 28 20 24 28 25 29 27 15 11 9 15 12 13 8 11 19 31 29 14 15 21 7 5 4 9 5 9 5 6 10 13 12 17 50 14 52 56 70 73 75 79 59
19 25 26 17 17 24 19 34 39 32 16 8 24 46 36 28 34 25 22 17 12 9 7 4 5 8 8 9 2 4 4 2 3 10 37 27 46 67 79 78 77 84 73 75
17 24 24 18 17 20 17 9 8 7 29 8 7 18 30 14 37 27 25 20 15 8 4 8 9 4 3 4 6 4 13 11 16 18 44 55 63 67 62 72 82 78 90 85
17 24 22 20 22 20 19 8 5 11 17 7 10 10 14 18 40 32 22 22 9 7 2 6 11 10 2 2 5 22 27 36 42 27 33 39 48 60 71 58 77 84 83 76
18 23 21 18 19 18 30 29 31 24 18 8 6 8 12 20 22 20 23 14 10 7 7 8 10 8 3 5 7 22 34 40 30 45 49 53 65 70 71 73 79 96 86 80
24 21 18 12 13 12 13 11 12 30 14 6 6 5 6 8 35 11 14 19 6 15 5 6 3 4 5 5 10 22 31 30 44 55 56 52 59 72 71 65 82 93 90 85
31 24 11 7 7 10 13 9 8 7 8 9 8 8 7 8 7 20 20 16 6 6 8 2 2 1 15 5 8 25 36 40 42 47 50 65 67 72 74 75 80 94 95 93
32 16 10 12 12 17 7 9 11 12 7 13 15 29 16 19 7 1 3 5 7 4 4 4 5 2 5 8 21 27 35 46 42 43 46 54 64 72 76 84 83 88 103 95
31 19 15 14 11 9 7 6 8 9 7 13 10 20 29 13 5 4 3 4 1 6 16 4 3 1 11 17 21 27 37 50 52 48 45 56 63 72 73 77 88 88 99 103
29 8 9 9 10 10 9 9 7 6 10 16 19 5 12 7 4 2 3 4 5 27 6 3 5 12 20 22 25 28 36 54 59 58 46 54 63 69 67 74 87 89 102 107
10 12 9 9 9 10 9 11 5 9 21 25 21 5 2 3 5 4 5 6 3 4 3 6 5 20 16 22 26 30 40 49 60 58 54 56 56 63 69 70 88 86 104 107
11 10 9 13 20 10 11 20 19 31 36 12 18 9 9 4 4 3 5 5 2 5 3 3 18 16 16 22 26 30 38 42 53 56 65 68 56 55 65 69 77 84 98 96
9 10 8 13 6 11 15 19 29 26 14 11 4 6 4 4 1 3 3 5 3 3 3 19 17 18 19 23 24 29 34 39 50 52 56 66 58 60 61 67 76 82 101 90
9 11 22 23 13 11 18 24 22 19 13 4 8 6 6 7 4 4 1 1 4 5 19 15 13 13 17 21 24 27 34 38 44 41 48 59 61 61 63 73 79 70 93 96
Wind_Direction_500mb
315 322 339 342 338 337 342 352 311 254 195 212 216 237 279 330 338 327 345 309 275 290 310 311 319 308 310 318 291 328 76 142 244 231 281 50 47 152 147 153 335 294 103 253
313 320 329 336 333 341 342 331 291 305 214 259 286 306 331 343 323 340 320 278 319 329 330 328 293 298 301 312 278 152 162 260 329 325 290 359 122 219 175 175 177 234 253 275
309 312 325 329 330 322 340 323 301 347 284 288 6 343 320 316 324 303 322 318 336 320 301 295 286 319 312 309 344 130 117 201 215 247 258 268 223 235 217 166 162 221 231 267
302 313 321 325 329 325 331 307 301 339 310 333 322 312 294 326 315 359 2 354 341 325 313 311 312 313 321 331 136 156 145 220 265 288 298 297 294 289 286 240 228 225 262 242
302 308 319 325 324 324 315 295 338 331 306 307 324 310 333 340 330 336 326 300 304 305 286 285 304 331 338 299 335 353 333 294 303 293 313 300 290 290 283 278 280 289 336 320
299 306 315 315 322 330 323 277 283 330 295 312 292 316 335 325 320 331 330 320 324 309 301 321 317 308 289 256 283 295 292 319 338 283 311 323 308 304 321 268 320 135 290 279
290 299 308 314 316 323 300 320 303 281 277 290 295 311 307 321 325 306 298 286 260 321 333 317 304 277 259 254 246 231 246 278 272 290 327 247 253 15 24 8 334 38 309 12
289 294 302 310 307 324 322 313 246 265 280 321 302 320 325 327 297 304 311 305 63 330 336 303 286 294 82 333 228 224 196 162 28 226 266 286 295 16 9 10 10 30 357 342
289 294 306 304 304 304 321 313 277 242 297 253 312 329 314 321 322 307 323 2 7 14 276 260 265 276 294 187 266 83 57 113 133 292 269 258 33 1 339 287 248 360 343 328
289 294 305 291 287 284 297 313 278 241 253 279 301 289 306 291 285 288 290 343 341 215 274 294 259 275 340 353 159 116 46 42 215 215 242 277 8 353 333 19 317 346 344 341
289 286 300 286 273 283 280 311 304 236 252 282 284 273 273 273 283 275 329 326 11 318 289 322 331 341 335 338 328 22 166 209 210 233 236 286 8 16 359 271 311 324 326 319
281 281 291 288 264 275 265 302 313 258 241 262 283 282 267 257 260 270 295 301 318 328 355 7 333 340 330 347 294 342 91 169 214 233 260 77 5 312 332 334 328 321 312 308
272 275 280 275 254 267 255 294 311 310 272 295 287 285 284 274 247 205 263 86 11 359 349 320 267 286 344 297 294 6 330 33 54 350 342 359 334 330 331 328 319 312 309 308
274 268 270 273 253 245 250 279 310 292 274 279 287 322 252 272 251 215 228 256 289 313 314 288 277 258 291 268 258 339 6 355 337 267 278 336 294 319 316 318 316 310 309 308
267 264 264 256 250 245 266 266 287 292 231 287 289 296 252 263 229 214 227 231 253 299 303 287 262 288 359 329 299 48 327 359 280 278 307 294 293 305 319 308 312 310 324 317
257 255 258 220 243 252 267 284 297 254 199 289 292 293 278 268 190 200 213 226 231 228 241 278 270 295 63 329 317 95 30 8 321 290 299 298 298 306 314 312 316 322 322 315
243 239 250 220 241 253 221 211 295 279 197 263 285 281 286 221 197 199 197 197 192 222 211 269 275 279 123 237 251 356 356 332 319 317 318 311 317 304 314 317 321 320 313 318
225 234 226 235 235 248 242 258 277 229 198 242 270 276 272 216 195 176 200 169 182 212 239 245 256 146 170 241 328 338 334 325 326 328 328 308 311 315 320 324 329 330 324 316
210 201 202 203 219 227 262 289 188 190 208 248 243 269 289 224 219 192 182 177 182 167 227 233 129 217 214 12 4 340 333 325 317 326 322 321 323 321 326 327 331 332 329 327
193 187 168 207 215 208 159 166 156 204 232 239 251 253 268 295 250 198 180 179 178 189 210 209 224 122 121 81 16 345 347 338 332 331 329 326 324 330 336 333 334 336 333 330
179 175 180 189 152 164 205 201 195 190 233 223 236 219 230 286 268 310 44 182 175 249 158 244 203 155 105 31 8 348 345 340 336 333 328 327 332 331 338 336 335 335 341 338
179 157 159 165 188 208 232 214 191 203 236 202 227 215 198 241 275 15 307 222 248 251 148 235 153 114 66 14 347 347 345 353 350 343 338 339 338 341 338 343 340 337 344 348
146 163 161 178 179 218 217 213 201 214 223 202 200 223 208 172 146 203 236 234 242 127 203 122 73 67 27 357 346 344 345 359 357 352 351 345 342 344 346 346 345 342 351 355
146 163 193 217 190 232 203 226 302 280 242 248 197 143 120 253 162 199 254 226 207 263 24 69 94 59 5 342 348 348 347 351 357 0 357 349 348 347 350 352 352 349 355 359
167 193 218 217 240 258 258 230 254 257 278 235 133 166 181 16 30 317 355 279 112 51 77 62 83 46 1 345 345 347 350 349 351 1 6 0 358 359 356 0 355 355 1 2
183 218 245 261 285 254 255 259 239 255 251 274 170 171 170 100 306 294 3 353 43 110 146 74 48 23 352 345 348 349 351 351 350 353 353 1 7 5 359 7 360 357 3 5
216 229 233 257 280 260 263 214 248 221 267 244 56 273 148 136 170 167 107 214 183 84 89 70 36 359 351 346 351 354 355 350 346 356 352 7 10 10 11 12 2 1 6 11
Wind_Speed_850mb
48 46 44 59 78 75 60 33 7 15 21 5 11 8 16 36 39 41 22 11 12 17 18 15 22 29 20 41 1 6 5 8 5 12 19 23 12 7 11 4 6 8 3 14
50 44 44 48 75 72 70 49 22 8 16 7 9 20 23 27 26 30 23 8 18 19 13 12 11 26 33 34 10 5 12 5 8 13 9 4 5 7 8 7 7 10 10 9
50 47 48 57 58 54 60 20 8 28 21 26 17 18 18 22 35 31 25 10 8 13 17 21 13 23 25 36 24 21 13 5 10 12 20 16 4 16 17 14 7 10 16 25
49 45 47 58 72 43 35 12 11 25 10 18 32 25 19 21 30 21 34 14 21 24 18 24 21 26 27 26 16 12 11 10 13 20 29 29 30 33 33 21 30 15 30 29
41 41 52 67 61 45 30 15 14 27 40 30 25 23 15 22 32 27 16 15 18 18 14 15 19 17 12 8 12 13 11 8 12 15 21 30 36 32 33 30 34 21 17 22
40 44 54 55 47 36 17 17 31 21 16 17 18 14 25 29 34 20 47 31 16 20 24 31 33 35 29 18 12 10 8 6 9 12 19 31 18 13 20 10 8 4 8 9
44 46 45 50 37 35 26 27 17 8 9 11 18 30 33 26 34 38 46 41 16 14 21 35 44 44 40 32 21 24 10 9 3 9 12 7 11 25 13 17 16 18 11 21
48 48 45 40 31 29 22 24 9 6 7 18 28 24 25 29 46 30 39 43 7 21 17 7 10 8 4 8 18 16 17 5 3 2 5 20 15 14 21 8 5 23 27 28
49 48 42 27 23 26 27 20 20 13 10 10 16 28 14 13 17 18 22 17 12 8 3 6 8 6 11 2 6 4 12 15 8 4 6 7 14 25 39 14 9 35 29 27
47 44 32 20 19 25 28 25 18 14 11 31 21 11 13 14 22 10 21 30 12 3 4 3 5 6 13 4 7 0 3 3 10 10 10 11 24 25 32 6 12 45 50 45
33 40 29 18 19 23 28 30 19 21 13 45 34 23 27 27 31 9 26 21 14 8 4 4 5 4 7 8 10 3 8 6 5 7 7 5 29 12 13 14 30 42 45 54
26 33 28 22 20 21 26 27 21 20 35 35 53 63 54 65 62 37 12 18 10 8 5 7 7 5 6 7 5 11 6 8 5 5 8 10 28 21 18 35 44 48 60 63
25 29 28 18 21 19 30 26 27 24 26 47 28 18 20 21 19 31 14 1 10 9 12 6 5 6 3 5 6 7 6 29 7 11 7 18 50 27 57 50 61 67 68 68
23 27 28 20 24 28 25 29 27 15 11 9 15 12 13 8 11 19 31 29 14 15 21 7 5 4 9 5 9 5 6 10 13 12 17 50 14 52 56 70 73 75 79 59
19 25 26 17 17 24 19 34 39 32 16 8 24 46 36 28 34 25 22 17 12 9 7 4 5 8 8 9 2 4 4 2 3 10 37 27 46 67 79 78 77 84 73 75
17 24 24 18 17 20 17 9 8 7 29 8 7 18 30 14 37 27 25 20 15 8 4 8 9 4 3 4 6 4 13 11 16 18 44 55 63 67 62 72 82 78 90 85
17 24 22 20 22 20 19 8 5 11 17 7 10 10 14 18 40 32 22 22 9 7 2 6 11 10 2 2 5 22 27 36 42 27 33 39 48 60 71 58 77 84 83 76
18 23 21 18 19 18 30 29 31 24 18 8 6 8 12 20 22 20 23 14 10 7 7 8 10 8 3 5 7 22 34 40 30 45 49 53 65 70 71 73 79 96 86 80
24 21 18 12 13 12 13 11 12 30 14 6 6 5 6 8 35 11 14 19 6 15 5 6 3 4 5 5 10 22 31 30 44 55 56 52 59 72 71 65 82 93 90 85
31 24 11 7 7 10 13 9 8 7 8 9 8 8 7 8 7 20 20 16 6 6 8 2 2 1 15 5 8 25 36 40 42 47 50 65 67 72 74 75 80 94 95 93
32 16 10 12 12 17 7 9 11 12 7 13 15 29 16 19 7 1 3 5 7 4 4 4 5 2 5 8 21 27 35 46 42 43 46 54 64 72 76 84 83 88 103 95
31 19 15 14 11 9 7 6 8 9 7 13 10 20 29 13 5 4 3 4 1 6 16 4 3 1 11 17 21 27 37 50 52 48 45 56 63 72 73 77 88 88 99 103
29 8 9 9 10 10 9 9 7 6 10 16 19 5 12 7 4 2 3 4 5 27 6 3 5 12 20 22 25 28 36 54 59 58 46 54 63 69 67 74 87 89 102 107
10 12 9 9 9 10 9 11 5 9 21 25 21 5 2 3 5 4 5 6 3 4 3 6 5 20 16 22 26 30 40 49 60 58 54 56 56 63 69 70 88 86 104 107
11 10 9 13 20 10 11 20 19 31 36 12 18 9 9 4 4 3 5 5 2 5 3 3 18 16 16 22 26 30 38 42 53 56 65 68 56 55 65 69 77 84 98 96
9 10 8 13 6 11 15 19 29 26 14 11 4 6 4 4 1 3 3 5 3 3 3 19 17 18 19 23 24 29 34 39 50 52 56 66 58 60 61 67 76 82 101 90
9 11 22 23 13 11 18 24 22 19 13 4 8 6 6 7 4 4 1 1 4 5 19 15 13 13 17 21 24 27 34 38 44 41 48 59 61 61 63 73 79 70 93 96
Wind_Direction_850mb
315 322 339 342 338 337 342 352 311 254 195 212 216 237 279 330 338 327 345 309 275 290 310 311 319 308 310 318 291 328 76 142 244 231 281 50 47 152 147 153 335 294 103 253
313 320 329 336 333 341 342 331 291 305 214 259 286 306 331 343 323 340 320 278 319 329 330 328 293 298 301 312 278 152 162 260 329 325 290 359 122 219 175 175 177 234 253 275
309 312 325 329 330 322 340 323 301 347 284 288 6 343 320 316 324 303 322 318 336 320 301 295 286 319 312 309 344 130 117 201 215 247 258 268 223 235 217 166 162 221 231 267
302 313 321 325 329 325 331 307 301 339 310 333 322 312 294 326 315 359 2 354 341 325 313 311 312 313 321 331 136 156 145 220 265 288 298 297 294 289 286 240 228 225 262 242
302 308 319 325 324 324 315 295 338 331 306 307 324 310 333 340 330 336 326 300 304 305 286 285 304 331 338 299 335 353 333 294 303 293 313 300 290 290 283 278 280 289 336 320
299 306 315 315 322 330 323 277 283 330 295 312 292 316 335 325 320 331 330 320 324 309 301 321 317 308 289 256 283 295 292 319 338 283 311 323 308 304 321 268 320 135 290 279
290 299 308 314 316 323 300 320 303 281 277 290 295 311 307 321 325 306 298 286 260 321 333 317 304 277 259 254 246 231 246 278 272 290 327 247 253 15 24 8 334 38 309 12
289 294 302 310 307 324 322 313 246 265 280 321 302 320 325 327 297 304 311 305 63 330 336 303 286 294 82 333 228 224 196 162 28 226 266 286 295 16 9 10 10 30 357 342
289 294 306 304 304 304 321 313 277 242 297 253 312 329 314 321 322 307 323 2 7 14 276 260 265 276 294 187 266 83 57 113 133 292 269 258 33 1 339 287 248 360 343 328
289 294 305 291 287 284 297 313 278 241 253 279 301 289 306 291 285 288 290 343 341 215 274 294 259 275 340 353 159 116 46 42 215 215 242 277 8 353 333 19 317 346 344 341
289 286 300 286 273 283 280 311 304 236 252 282 284 273 273 273 283 275 329 326 11 318 289 322 331 341 335 338 328 22 166 209 210 233 236 286 8 16 359 271 311 324 326 319
281 281 291 288 264 275 265 302 313 258 241 262 283 282 267 257 260 270 295 301 318 328 355 7 333 340 330 347 294 342 91 169 214 233 260 77 5 312 332 334 328 321 312 308
272 275 280 275 254 267 255 294 311 310 272 295 287 285 284 274 247 205 263 86 11 359 349 320 267 286 344 297 294 6 330 33 54 350 342 359 334 330 331 328 319 312 309 308
274 268 270 273 253 245 250 279 310 292 274 279 287 322 252 272 251 215 228 256 289 313 314 288 277 258 291 268 258 339 6 355 337 267 278 336 294 319 316 318 316 310 309 308
267 264 264 256 250 245 266 266 287 292 231 287 289 296 252 263 229 214 227 231 253 299 303 287 262 288 359 329 299 48 327 359 280 278 307 294 293 305 319 308 312 310 324 317
257 255 258 220 243 252 267 284 297 254 199 289 292 293 278 268 190 200 213 226 231 228 241 278 270 295 63 329 317 95 30 8 321 290 299 298 298 306 314 312 316 322 322 315
243 239 250 220 241 253 221 211 295 279 197 263 285 281 286 221 197 199 197 197 192 222 211 269 275 279 123 237 251 356 356 332 319 317 318 311 317 304 314 317 321 320 313 318
225 234 226 235 235 248 242 258 277 229 198 242 270 276 272 216 195 176 200 169 182 212 239 245 256 146 170 241 328 338 334 325 326 328 328 308 311 315 320 324 329 330 324 316
210 201 202 203 219 227 262 289 188 190 208 248 243 269 289 224 219 192 182 177 182 167 227 233 129 217 214 12 4 340 333 325 317 326 322 321 323 321 326 327 331 332 329 327
193 187 168 207 215 208 159 166 156 204 232 239 251 253 268 295 250 198 180 179 178 189 210 209 224 122 121 81 16 345 347 338 332 331 329 326 324 330 336 333 334 336 333 330
179 175 180 189 152 164 205 201 195 190 233 223 236 219 230 286 268 310 44 182 175 249 158 244 203 155 105 31 8 348 345 340 336 333 328 327 332 331 338 336 335 335 341 338
179 157 159 165 188 208 232 214 191 203 236 202 227 215 198 241 275 15 307 222 248 251 148 235 153 114 66 14 347 347 345 353 350 343 338 339 338 341 338 343 340 337 344 348
146 163 161 178 179 218 217 213 201 214 223 202 200 223 208 172 146 203 236 234 242 127 203 122 73 67 27 357 346 344 345 359 357 352 351 345 342 344 346 346 345 342 351 355
146 163 193 217 190 232 203 226 302 280 242 248 197 143 120 253 162 199 254 226 207 263 24 69 94 59 5 342 348 348 347 351 357 0 357 349 348 347 350 352 352 349 355 359
167 193 218 217 240 258 258 230 254 257 278 235 133 166 181 16 30 317 355 279 112 51 77 62 83 46 1 345 345 347 350 349 351 1 6 0 358 359 356 0 355 355 1 2
183 218 245 261 285 254 255 259 239 255 251 274 170 171 170 100 306 294 3 353 43 110 146 74 48 23 352 345 348 349 351 351 350 353 353 1 7 5 359 7 360 357 3 5
216 229 233 257 280 260 263 214 248 221 267 244 56 273 148 136 170 167 107 214 183 84 89 70 36 359 351 346 351 354 355 350 346 356 352 7 10 10 11 12 2 1 6 11